Time,TemperatureF,DewpointF,PressureIn,WindDirection,WindDirectionDegrees,WindSpeedMPH,WindSpeedGustMPH,Humidity,HourlyPrecipIn,Conditions,Clouds,dailyrainin,SolarRadiationWatts/m^2,SoftwareType,DateUTC
2013-05-10 00:00:00,59.8,58.7,29.82,WSW,254,5.0,6.0,96,0.00,,,0.00,0,Wunderground v.1.15,2013-05-10 05:00:00,
2013-05-10 00:05:00,59.8,58.7,29.82,WSW,252,6.0,6.0,96,0.00,,,0.00,0,Wunderground v.1.15,2013-05-10 05:05:00,
2013-05-10 00:15:00,59.5,58.4,29.81,WSW,252,5.0,6.0,96,0.00,,,0.00,0,Wunderground v.1.15,2013-05-10 05:15:00,
2013-05-10 00:20:00,59.4,58.3,29.81,WSW,252,5.0,6.0,96,0.00,,,0.00,0,Wunderground v.1.15,2013-05-10 05:20:00,
2013-05-10 00:25:00,59.3,58.2,29.82,WSW,240,6.0,6.0,96,0.00,,,0.00,0,Wunderground v.1.15,2013-05-10 05:25:00,
2013-05-10 00:30:00,59.3,58.2,29.82,SW,236,7.0,7.0,96,0.00,,,0.00,0,Wunderground v.1.15,2013-05-10 05:30:00,
2013-05-10 00:35:00,59.2,58.1,29.82,SW,236,7.0,7.0,96,0.00,,,0.00,0,Wunderground v.1.15,2013-05-10 05:35:00,
2013-05-10 00:45:00,59.0,57.9,29.82,SW,234,8.0,8.0,96,0.00,,,0.00,0,Wunderground v.1.15,2013-05-10 05:45:00,
2013-05-10 00:50:00,59.0,57.9,29.83,SW,234,8.0,9.0,96,0.00,,,0.00,0,Wunderground v.1.15,2013-05-10 05:50:00,
2013-05-10 00:55:00,59.0,57.9,29.82,SW,234,8.0,9.0,96,0.00,,,0.00,0,Wunderground v.1.15,2013-05-10 05:55:00,
2013-05-10 01:00:00,59.0,57.9,29.83,SW,235,9.0,9.0,96,0.00,,,0.00,0,Wunderground v.1.15,2013-05-10 06:00:00,
2013-05-10 01:05:00,59.0,57.9,29.83,WSW,239,9.0,9.0,96,0.00,,,0.00,0,Wunderground v.1.15,2013-05-10 06:05:00,
2013-05-10 01:10:00,59.1,58.2,29.83,WSW,239,9.0,10.0,97,0.00,,,0.00,0,Wunderground v.1.15,2013-05-10 06:10:00,
2013-05-10 01:20:00,59.2,58.3,29.83,WSW,240,10.0,11.0,97,0.00,,,0.00,0,Wunderground v.1.15,2013-05-10 06:20:00,
2013-05-10 01:25:00,59.3,58.4,29.83,WSW,239,9.0,11.0,97,0.00,,,0.00,0,Wunderground v.1.15,2013-05-10 06:25:00,
2013-05-10 01:30:00,59.3,58.4,29.82,WSW,245,9.0,9.0,97,0.00,,,0.00,0,Wunderground v.1.15,2013-05-10 06:30:00,
2013-05-10 01:35:00,59.3,58.2,29.82,WSW,248,9.0,9.0,96,0.00,,,0.00,0,Wunderground v.1.15,2013-05-10 06:35:00,
2013-05-10 01:40:00,59.3,58.2,29.81,WSW,250,7.0,7.0,96,0.00,,,0.00,0,Wunderground v.1.15,2013-05-10 06:40:00,
2013-05-10 01:50:00,59.3,58.2,29.81,WSW,248,6.0,7.0,96,0.00,,,0.00,0,Wunderground v.1.15,2013-05-10 06:50:00,
2013-05-10 01:55:00,59.3,58.2,29.81,WSW,248,6.0,7.0,96,0.00,,,0.00,0,Wunderground v.1.15,2013-05-10 06:55:00,
2013-05-10 02:00:00,59.3,58.2,29.81,WSW,247,6.0,6.0,96,0.00,,,0.00,0,Wunderground v.1.15,2013-05-10 07:00:00,
2013-05-10 02:05:00,59.4,58.3,29.81,West,264,6.0,6.0,96,0.00,,,0.00,0,Wunderground v.1.15,2013-05-10 07:05:00,
2013-05-10 02:10:00,59.5,58.4,29.81,West,264,7.0,7.0,96,0.00,,,0.00,0,Wunderground v.1.15,2013-05-10 07:10:00,
2013-05-10 02:15:00,59.6,58.5,29.81,West,263,6.0,7.0,96,0.00,,,0.00,0,Wunderground v.1.15,2013-05-10 07:15:00,
2013-05-10 02:25:00,59.5,58.4,29.81,West,270,5.0,6.0,96,0.00,,,0.00,0,Wunderground v.1.15,2013-05-10 07:25:00,
2013-05-10 02:30:00,59.5,58.4,29.81,West,276,6.0,6.0,96,0.00,,,0.00,0,Wunderground v.1.15,2013-05-10 07:30:00,
2013-05-10 02:35:00,59.4,58.3,29.81,West,274,6.0,6.0,96,0.00,,,0.00,0,Wunderground v.1.15,2013-05-10 07:35:00,
2013-05-10 02:40:00,59.3,58.2,29.81,West,273,6.0,6.0,96,0.00,,,0.00,0,Wunderground v.1.15,2013-05-10 07:40:00,
2013-05-10 02:45:00,59.2,58.1,29.81,West,273,6.0,7.0,96,0.00,,,0.00,0,Wunderground v.1.15,2013-05-10 07:45:00,
2013-05-10 02:55:00,59.1,58.0,29.81,West,275,5.0,7.0,96,0.00,,,0.00,0,Wunderground v.1.15,2013-05-10 07:55:00,
2013-05-10 03:00:00,59.1,58.0,29.81,West,275,5.0,6.0,96,0.00,,,0.00,0,Wunderground v.1.15,2013-05-10 08:00:00,
2013-05-10 03:05:00,59.1,58.0,29.81,West,275,5.0,6.0,96,0.00,,,0.00,0,Wunderground v.1.15,2013-05-10 08:05:00,
2013-05-10 03:10:00,59.0,57.9,29.81,West,275,4.0,5.0,96,0.00,,,0.00,0,Wunderground v.1.15,2013-05-10 08:10:00,
2013-05-10 03:15:00,59.0,57.9,29.81,West,275,4.0,5.0,96,0.00,,,0.00,0,Wunderground v.1.15,2013-05-10 08:15:00,
2013-05-10 03:20:00,59.0,57.9,29.81,West,275,4.0,4.0,96,0.00,,,0.00,0,Wunderground v.1.15,2013-05-10 08:20:00,
2013-05-10 03:30:00,59.0,57.9,29.81,West,276,4.0,7.0,96,0.00,,,0.00,0,Wunderground v.1.15,2013-05-10 08:30:00,
2013-05-10 03:35:00,59.0,58.2,29.81,WNW,300,6.0,10.0,97,0.00,,,0.00,0,Wunderground v.1.15,2013-05-10 08:35:00,
2013-05-10 03:40:00,59.2,58.3,29.81,NW,306,8.0,8.0,97,0.00,,,0.00,0,Wunderground v.1.15,2013-05-10 08:40:00,
2013-05-10 03:45:00,59.3,58.4,29.80,WNW,302,9.0,10.0,97,0.00,,,0.00,0,Wunderground v.1.15,2013-05-10 08:45:00,
2013-05-10 03:50:00,59.4,58.5,29.81,WNW,302,10.0,12.0,97,0.00,,,0.00,0,Wunderground v.1.15,2013-05-10 08:50:00,
2013-05-10 04:00:00,59.5,58.6,29.80,NW,308,13.0,13.0,97,0.00,,,0.01,0,Wunderground v.1.15,2013-05-10 09:00:00,
2013-05-10 04:05:00,59.7,58.6,29.81,NW,308,14.0,14.0,96,0.00,,,0.01,0,Wunderground v.1.15,2013-05-10 09:05:00,
2013-05-10 04:10:00,59.7,58.6,29.80,NW,305,13.0,13.0,96,0.00,,,0.01,0,Wunderground v.1.15,2013-05-10 09:10:00,
2013-05-10 04:15:00,59.8,58.7,29.81,NW,305,12.0,13.0,96,0.00,,,0.01,0,Wunderground v.1.15,2013-05-10 09:15:00,
2013-05-10 04:20:00,59.8,58.7,29.80,NW,306,11.0,11.0,96,0.00,,,0.01,0,Wunderground v.1.15,2013-05-10 09:20:00,
2013-05-10 04:25:00,59.7,58.6,29.80,NW,307,10.0,11.0,96,0.00,,,0.01,0,Wunderground v.1.15,2013-05-10 09:25:00,
2013-05-10 04:35:00,59.7,58.6,29.81,NW,304,8.0,9.0,96,0.00,,,0.01,0,Wunderground v.1.15,2013-05-10 09:35:00,
2013-05-10 04:40:00,59.7,58.6,29.81,WNW,300,9.0,10.0,96,0.00,,,0.01,0,Wunderground v.1.15,2013-05-10 09:40:00,
2013-05-10 04:45:00,59.8,58.7,29.81,WNW,294,9.0,10.0,96,0.00,,,0.01,0,Wunderground v.1.15,2013-05-10 09:45:00,
2013-05-10 04:50:00,59.8,58.7,29.81,WNW,291,7.0,7.0,96,0.00,,,0.01,0,Wunderground v.1.15,2013-05-10 09:50:00,
2013-05-10 04:55:00,59.8,58.7,29.81,WNW,294,6.0,7.0,96,0.00,,,0.01,0,Wunderground v.1.15,2013-05-10 09:55:00,
2013-05-10 05:05:00,59.8,58.4,29.82,WNW,286,5.0,6.0,95,0.00,,,0.01,0,Wunderground v.1.15,2013-05-10 10:05:00,
2013-05-10 05:10:00,59.8,58.4,29.82,West,277,5.0,5.0,95,0.00,,,0.01,0,Wunderground v.1.15,2013-05-10 10:10:00,
2013-05-10 05:15:00,59.7,58.3,29.82,West,269,6.0,6.0,95,0.00,,,0.01,0,Wunderground v.1.15,2013-05-10 10:15:00,
2013-05-10 05:20:00,59.5,58.1,29.82,West,272,7.0,10.0,95,0.00,,,0.01,0,Wunderground v.1.15,2013-05-10 10:20:00,
2013-05-10 05:25:00,59.3,57.9,29.82,WNW,286,8.0,10.0,95,0.00,,,0.01,0,Wunderground v.1.15,2013-05-10 10:25:00,
2013-05-10 05:30:00,59.2,57.5,29.82,WNW,287,9.0,12.0,94,0.00,,,0.01,0,Wunderground v.1.15,2013-05-10 10:30:00,
2013-05-10 05:40:00,58.7,56.7,29.83,WNW,284,11.0,11.0,93,0.00,,,0.01,0,Wunderground v.1.15,2013-05-10 10:40:00,
2013-05-10 05:45:00,58.5,56.5,29.83,WNW,287,11.0,12.0,93,0.00,,,0.01,0,Wunderground v.1.15,2013-05-10 10:45:00,
2013-05-10 05:50:00,58.4,56.1,29.83,WNW,293,11.0,12.0,92,0.00,,,0.01,0,Wunderground v.1.15,2013-05-10 10:50:00,
2013-05-10 05:55:00,58.3,56.0,29.83,WNW,288,11.0,12.0,92,0.00,,,0.01,0,Wunderground v.1.15,2013-05-10 10:55:00,
2013-05-10 06:00:00,58.3,56.0,29.83,WNW,292,10.0,10.0,92,0.00,,,0.01,0,Wunderground v.1.15,2013-05-10 11:00:00,
2013-05-10 06:10:00,58.2,55.9,29.83,WNW,296,10.0,10.0,92,0.00,,,0.01,0,Wunderground v.1.15,2013-05-10 11:10:00,
2013-05-10 06:15:00,58.1,55.8,29.83,WNW,286,9.0,10.0,92,0.00,,,0.01,0,Wunderground v.1.15,2013-05-10 11:15:00,
2013-05-10 06:20:00,58.2,56.2,29.84,WNW,286,8.0,8.0,93,0.00,,,0.01,0,Wunderground v.1.15,2013-05-10 11:20:00,
2013-05-10 06:25:00,58.1,56.1,29.84,WNW,284,7.0,8.0,93,0.00,,,0.01,5,Wunderground v.1.15,2013-05-10 11:25:00,
2013-05-10 06:30:00,58.2,56.2,29.84,WNW,288,7.0,9.0,93,0.00,,,0.01,5,Wunderground v.1.15,2013-05-10 11:30:00,
2013-05-10 06:35:00,58.2,56.2,29.85,WNW,296,8.0,11.0,93,0.00,,,0.01,9,Wunderground v.1.15,2013-05-10 11:35:00,
2013-05-10 06:45:00,58.1,56.1,29.85,WNW,289,9.0,9.0,93,0.00,,,0.01,23,Wunderground v.1.15,2013-05-10 11:45:00,
2013-05-10 06:50:00,58.1,56.4,29.84,WNW,290,9.0,9.0,94,0.00,,,0.01,28,Wunderground v.1.15,2013-05-10 11:50:00,
2013-05-10 06:55:00,58.2,56.5,29.85,WNW,289,8.0,9.0,94,0.00,,,0.01,21,Wunderground v.1.15,2013-05-10 11:55:00,
2013-05-10 07:00:00,58.2,56.5,29.85,WNW,285,7.0,7.0,94,0.00,,,0.01,60,Wunderground v.1.15,2013-05-10 12:00:00,
2013-05-10 07:10:00,58.3,56.6,29.85,WNW,290,6.0,6.0,94,0.00,,,0.01,88,Wunderground v.1.15,2013-05-10 12:10:00,
2013-05-10 07:20:00,58.5,56.8,29.85,WNW,284,8.0,8.0,94,0.00,,,0.01,32,Wunderground v.1.15,2013-05-10 12:20:00,
2013-05-10 07:25:00,58.5,56.8,29.85,WNW,286,7.0,8.0,94,0.00,,,0.01,26,Wunderground v.1.15,2013-05-10 12:25:00,
2013-05-10 07:30:00,58.5,56.5,29.85,WNW,290,7.0,7.0,93,0.00,,,0.01,26,Wunderground v.1.15,2013-05-10 12:30:00,
2013-05-10 07:35:00,58.5,56.5,29.85,WNW,298,8.0,9.0,93,0.00,,,0.01,33,Wunderground v.1.15,2013-05-10 12:35:00,
2013-05-10 07:40:00,58.4,56.4,29.85,WNW,301,10.0,10.0,93,0.00,,,0.01,32,Wunderground v.1.15,2013-05-10 12:40:00,
2013-05-10 07:45:00,58.3,56.6,29.85,NW,306,11.0,13.0,94,0.00,,,0.01,25,Wunderground v.1.15,2013-05-10 12:45:00,
2013-05-10 07:50:00,57.8,56.1,29.86,NNW,339,11.0,11.0,94,0.00,,,0.01,23,Wunderground v.1.15,2013-05-10 12:50:00,
2013-05-10 07:55:00,56.9,54.9,29.86,NW,321,7.0,11.0,93,0.00,,,0.01,35,Wunderground v.1.15,2013-05-10 12:55:00,
2013-05-10 08:00:00,56.2,54.2,29.86,NNW,340,4.0,6.0,93,0.00,,,0.01,32,Wunderground v.1.15,2013-05-10 13:00:00,
2013-05-10 08:10:00,55.1,53.4,29.86,NNW,346,5.0,5.0,94,0.00,,,0.01,62,Wunderground v.1.15,2013-05-10 13:10:00,
2013-05-10 08:15:00,54.8,53.1,29.86,NNW,342,5.0,5.0,94,0.00,,,0.01,35,Wunderground v.1.15,2013-05-10 13:15:00,
2013-05-10 08:20:00,54.4,53.0,29.87,North,350,5.0,5.0,95,0.00,,,0.01,37,Wunderground v.1.15,2013-05-10 13:20:00,
2013-05-10 08:25:00,54.0,52.3,29.87,NNE,18,5.0,6.0,94,0.00,,,0.01,53,Wunderground v.1.15,2013-05-10 13:25:00,
2013-05-10 08:30:00,53.7,52.3,29.87,North,5,4.0,4.0,95,0.00,,,0.01,47,Wunderground v.1.15,2013-05-10 13:30:00,
2013-05-10 08:40:00,53.2,51.8,29.88,North,9,5.0,5.0,95,0.00,,,0.01,47,Wunderground v.1.15,2013-05-10 13:40:00,
2013-05-10 08:45:00,53.0,51.6,29.88,NNW,342,5.0,5.0,95,0.00,,,0.01,60,Wunderground v.1.15,2013-05-10 13:45:00,
2013-05-10 08:50:00,52.6,51.2,29.89,North,360,4.0,4.0,95,0.00,,,0.01,79,Wunderground v.1.15,2013-05-10 13:50:00,
2013-05-10 08:55:00,52.5,51.1,29.89,NNE,26,5.0,10.0,95,0.00,,,0.01,79,Wunderground v.1.15,2013-05-10 13:55:00,
2013-05-10 09:00:00,52.5,51.1,29.90,North,351,4.0,4.0,95,0.00,,,0.01,56,Wunderground v.1.15,2013-05-10 14:00:00,
2013-05-10 09:10:00,52.5,50.8,29.90,North,355,3.0,5.0,94,0.00,,,0.01,62,Wunderground v.1.15,2013-05-10 14:10:00,
2013-05-10 09:15:00,52.5,50.8,29.90,North,360,4.0,5.0,94,0.00,,,0.01,62,Wunderground v.1.15,2013-05-10 14:15:00,
2013-05-10 09:20:00,52.5,50.8,29.90,North,360,4.0,4.0,94,0.00,,,0.01,72,Wunderground v.1.15,2013-05-10 14:20:00,
2013-05-10 09:30:00,52.5,50.8,29.90,NNE,13,4.0,4.0,94,0.00,,,0.01,113,Wunderground v.1.15,2013-05-10 14:30:00,
2013-05-10 09:35:00,52.6,50.9,29.90,NNE,14,4.0,4.0,94,0.00,,,0.01,120,Wunderground v.1.15,2013-05-10 14:35:00,
2013-05-10 09:40:00,52.7,51.0,29.90,North,355,3.0,3.0,94,0.00,,,0.01,141,Wunderground v.1.15,2013-05-10 14:40:00,
2013-05-10 09:45:00,52.6,50.9,29.90,NNW,348,3.0,3.0,94,0.00,,,0.01,121,Wunderground v.1.15,2013-05-10 14:45:00,
2013-05-10 09:50:00,52.6,50.9,29.90,NNE,13,4.0,5.0,94,0.00,,,0.01,107,Wunderground v.1.15,2013-05-10 14:50:00,
2013-05-10 09:55:00,52.5,50.8,29.90,North,360,4.0,5.0,94,0.00,,,0.01,127,Wunderground v.1.15,2013-05-10 14:55:00,
2013-05-10 10:00:00,52.2,50.5,29.90,North,355,4.0,4.0,94,0.00,,,0.01,167,Wunderground v.1.15,2013-05-10 15:00:00,
2013-05-10 10:10:00,52.2,50.5,29.90,NNW,345,4.0,4.0,94,0.00,,,0.01,209,Wunderground v.1.15,2013-05-10 15:10:00,
2013-05-10 10:15:00,52.1,50.4,29.91,North,355,5.0,5.0,94,0.00,,,0.01,181,Wunderground v.1.15,2013-05-10 15:15:00,
2013-05-10 10:20:00,52.3,50.6,29.91,North,355,3.0,3.0,94,0.00,,,0.01,209,Wunderground v.1.15,2013-05-10 15:20:00,
2013-05-10 10:25:00,52.4,50.4,29.91,NNW,348,3.0,4.0,93,0.00,,,0.01,188,Wunderground v.1.15,2013-05-10 15:25:00,
2013-05-10 10:35:00,52.7,50.7,29.92,NNE,12,3.0,5.0,93,0.00,,,0.01,197,Wunderground v.1.15,2013-05-10 15:35:00,
2013-05-10 10:40:00,52.9,50.6,29.92,North,350,2.0,2.0,92,0.00,,,0.01,167,Wunderground v.1.15,2013-05-10 15:40:00,
2013-05-10 10:45:00,53.0,50.4,29.92,North,349,2.0,4.0,91,0.00,,,0.01,156,Wunderground v.1.15,2013-05-10 15:45:00,
2013-05-10 10:50:00,53.0,50.4,29.92,North,350,2.0,6.0,91,0.00,,,0.01,160,Wunderground v.1.15,2013-05-10 15:50:00,
2013-05-10 10:55:00,53.1,50.5,29.92,North,355,3.0,6.0,91,0.00,,,0.01,167,Wunderground v.1.15,2013-05-10 15:55:00,
2013-05-10 11:00:00,53.2,50.6,29.92,North,355,3.0,3.0,91,0.00,,,0.01,141,Wunderground v.1.15,2013-05-10 16:00:00,
2013-05-10 11:05:00,53.3,51.0,29.93,North,355,2.0,3.0,92,0.00,,,0.01,134,Wunderground v.1.15,2013-05-10 16:05:00,
2013-05-10 11:10:00,53.3,50.7,29.93,NNW,347,3.0,3.0,91,0.00,,,0.01,125,Wunderground v.1.15,2013-05-10 16:10:00,
2013-05-10 11:15:00,53.1,50.5,29.93,NNW,346,3.0,3.0,91,0.00,,,0.01,114,Wunderground v.1.15,2013-05-10 16:15:00,
2013-05-10 11:20:00,53.2,50.9,29.93,NNW,337,3.0,3.0,92,0.00,,,0.01,183,Wunderground v.1.15,2013-05-10 16:20:00,
2013-05-10 11:25:00,53.2,50.9,29.93,NNW,339,2.0,3.0,92,0.00,,,0.01,135,Wunderground v.1.15,2013-05-10 16:25:00,
2013-05-10 11:30:00,53.3,51.0,29.93,NNW,341,2.0,3.0,92,0.00,,,0.01,155,Wunderground v.1.15,2013-05-10 16:30:00,
2013-05-10 11:40:00,53.4,50.8,29.93,NW,325,3.0,3.0,91,0.00,,,0.01,165,Wunderground v.1.15,2013-05-10 16:40:00,
2013-05-10 11:45:00,53.3,51.0,29.93,NW,304,3.0,3.0,92,0.00,,,0.01,214,Wunderground v.1.15,2013-05-10 16:45:00,
2013-05-10 11:50:00,53.5,51.2,29.93,NW,317,3.0,3.0,92,0.00,,,0.01,230,Wunderground v.1.15,2013-05-10 16:50:00,
2013-05-10 11:55:00,53.5,50.9,29.93,NNW,331,4.0,4.0,91,0.00,,,0.01,179,Wunderground v.1.15,2013-05-10 16:55:00,
2013-05-10 12:00:00,53.5,50.6,29.93,NW,325,3.0,3.0,90,0.00,,,0.01,197,Wunderground v.1.15,2013-05-10 17:00:00,
2013-05-10 12:05:00,53.6,50.7,29.93,NW,323,2.0,3.0,90,0.00,,,0.01,267,Wunderground v.1.15,2013-05-10 17:05:00,
2013-05-10 12:15:00,53.7,50.2,29.93,NNW,348,4.0,6.0,88,0.00,,,0.01,357,Wunderground v.1.15,2013-05-10 17:15:00,
2013-05-10 12:20:00,54.0,51.1,29.94,NW,319,4.0,4.0,90,0.00,,,0.01,329,Wunderground v.1.15,2013-05-10 17:20:00,
2013-05-10 12:25:00,54.0,50.5,29.94,NNW,341,3.0,4.0,88,0.00,,,0.01,225,Wunderground v.1.15,2013-05-10 17:25:00,
2013-05-10 12:30:00,54.0,50.2,29.94,NNW,338,3.0,3.0,87,0.00,,,0.01,366,Wunderground v.1.15,2013-05-10 17:30:00,
2013-05-10 12:35:00,54.1,50.6,29.93,NNW,330,3.0,3.0,88,0.00,,,0.01,292,Wunderground v.1.15,2013-05-10 17:35:00,
2013-05-10 12:45:00,54.3,50.5,29.93,NNW,336,3.0,4.0,87,0.00,,,0.01,246,Wunderground v.1.15,2013-05-10 17:45:00,
2013-05-10 12:50:00,54.3,50.5,29.93,NNW,332,3.0,3.0,87,0.00,,,0.01,241,Wunderground v.1.15,2013-05-10 17:50:00,
2013-05-10 12:55:00,54.3,50.5,29.93,NNW,336,2.0,3.0,87,0.00,,,0.01,315,Wunderground v.1.15,2013-05-10 17:55:00,
2013-05-10 13:00:00,54.4,50.6,29.93,North,355,3.0,3.0,87,0.00,,,0.01,313,Wunderground v.1.15,2013-05-10 18:00:00,
2013-05-10 13:05:00,54.5,50.7,29.93,NNW,342,3.0,3.0,87,0.00,,,0.01,336,Wunderground v.1.15,2013-05-10 18:05:00,
2013-05-10 13:10:00,54.6,50.5,29.93,NNW,327,3.0,3.0,86,0.00,,,0.01,325,Wunderground v.1.15,2013-05-10 18:10:00,
2013-05-10 13:20:00,54.6,50.5,29.93,NW,315,4.0,4.0,86,0.00,,,0.01,251,Wunderground v.1.15,2013-05-10 18:20:00,
2013-05-10 13:25:00,54.6,50.8,29.93,NNW,343,3.0,4.0,87,0.00,,,0.01,253,Wunderground v.1.15,2013-05-10 18:25:00,
2013-05-10 13:30:00,54.6,50.8,29.94,NNW,339,3.0,4.0,87,0.00,,,0.01,287,Wunderground v.1.15,2013-05-10 18:30:00,
2013-05-10 13:35:00,54.6,50.8,29.93,NNW,334,3.0,9.0,87,0.00,,,0.01,309,Wunderground v.1.15,2013-05-10 18:35:00,
2013-05-10 13:40:00,54.5,50.4,29.93,North,355,3.0,4.0,86,0.00,,,0.01,288,Wunderground v.1.15,2013-05-10 18:40:00,
2013-05-10 13:50:00,54.4,50.6,29.94,NNW,347,3.0,3.0,87,0.00,,,0.01,174,Wunderground v.1.15,2013-05-10 18:50:00,
2013-05-10 13:55:00,54.2,50.4,29.93,NNW,343,3.0,5.0,87,0.00,,,0.01,158,Wunderground v.1.15,2013-05-10 18:55:00,
2013-05-10 14:00:00,54.1,50.6,29.93,North,350,3.0,4.0,88,0.00,,,0.01,163,Wunderground v.1.15,2013-05-10 19:00:00,
2013-05-10 14:05:00,54.0,50.5,29.93,NNW,331,3.0,4.0,88,0.00,,,0.01,179,Wunderground v.1.15,2013-05-10 19:05:00,
2013-05-10 14:10:00,53.8,50.3,29.93,North,355,3.0,4.0,88,0.00,,,0.01,149,Wunderground v.1.15,2013-05-10 19:10:00,
2013-05-10 14:15:00,53.7,50.2,29.93,NNW,340,3.0,4.0,88,0.00,,,0.01,149,Wunderground v.1.15,2013-05-10 19:15:00,
2013-05-10 14:25:00,53.7,50.2,29.94,North,360,3.0,6.0,88,0.00,,,0.01,216,Wunderground v.1.15,2013-05-10 19:25:00,
2013-05-10 14:30:00,53.6,50.1,29.94,North,355,3.0,4.0,88,0.00,,,0.01,257,Wunderground v.1.15,2013-05-10 19:30:00,
2013-05-10 14:35:00,53.8,50.3,29.94,North,350,3.0,4.0,88,0.00,,,0.01,234,Wunderground v.1.15,2013-05-10 19:35:00,
2013-05-10 14:40:00,53.8,50.3,29.94,North,9,3.0,6.0,88,0.00,,,0.01,183,Wunderground v.1.15,2013-05-10 19:40:00,
2013-05-10 14:45:00,53.8,50.3,29.94,NNW,327,3.0,6.0,88,0.00,,,0.01,155,Wunderground v.1.15,2013-05-10 19:45:00,
2013-05-10 14:55:00,53.7,50.2,29.94,NNW,331,2.0,4.0,88,0.00,,,0.01,130,Wunderground v.1.15,2013-05-10 19:55:00,
2013-05-10 15:00:00,53.7,50.2,29.94,NNW,346,2.0,2.0,88,0.00,,,0.01,128,Wunderground v.1.15,2013-05-10 20:00:00,
2013-05-10 15:10:00,53.6,50.1,29.94,NW,320,2.0,2.0,88,0.00,,,0.01,100,Wunderground v.1.15,2013-05-10 20:10:00,
2013-05-10 15:15:00,53.5,50.0,29.94,NW,313,3.0,14.0,88,0.00,,,0.01,97,Wunderground v.1.15,2013-05-10 20:15:00,
2013-05-10 15:20:00,53.5,50.3,29.94,NW,319,3.0,4.0,89,0.00,,,0.01,95,Wunderground v.1.15,2013-05-10 20:20:00,
2013-05-10 15:25:00,53.3,49.8,29.94,NNW,333,3.0,5.0,88,0.00,,,0.01,102,Wunderground v.1.15,2013-05-10 20:25:00,
2013-05-10 15:30:00,53.3,49.8,29.94,NW,321,3.0,3.0,88,0.00,,,0.01,127,Wunderground v.1.15,2013-05-10 20:30:00,
2013-05-10 15:35:00,53.3,50.1,29.94,NW,322,2.0,3.0,89,0.00,,,0.01,111,Wunderground v.1.15,2013-05-10 20:35:00,
2013-05-10 15:40:00,53.3,50.1,29.95,NW,321,2.0,3.0,89,0.00,,,0.01,111,Wunderground v.1.15,2013-05-10 20:40:00,
2013-05-10 15:45:00,53.3,50.1,29.95,NW,323,2.0,3.0,89,0.00,,,0.01,130,Wunderground v.1.15,2013-05-10 20:45:00,
2013-05-10 15:50:00,53.4,49.9,29.95,North,350,2.0,3.0,88,0.00,,,0.01,151,Wunderground v.1.15,2013-05-10 20:50:00,
2013-05-10 16:00:00,53.5,49.7,29.95,NNW,344,3.0,3.0,87,0.00,,,0.01,156,Wunderground v.1.15,2013-05-10 21:00:00,
2013-05-10 16:10:00,53.7,50.2,29.95,NW,324,2.0,2.0,88,0.00,,,0.01,107,Wunderground v.1.15,2013-05-10 21:10:00,
2013-05-10 16:15:00,53.7,50.2,29.95,North,355,2.0,2.0,88,0.00,,,0.01,84,Wunderground v.1.15,2013-05-10 21:15:00,
2013-05-10 16:20:00,53.6,49.8,29.95,NNW,343,2.0,4.0,87,0.00,,,0.01,81,Wunderground v.1.15,2013-05-10 21:20:00,
2013-05-10 16:25:00,53.5,50.0,29.95,NNW,338,2.0,7.0,88,0.00,,,0.01,77,Wunderground v.1.15,2013-05-10 21:25:00,
2013-05-10 16:30:00,53.4,49.9,29.95,NNW,342,3.0,3.0,88,0.00,,,0.01,79,Wunderground v.1.15,2013-05-10 21:30:00,
2013-05-10 16:35:00,53.4,49.9,29.95,NNW,330,2.0,3.0,88,0.00,,,0.01,81,Wunderground v.1.15,2013-05-10 21:35:00,
2013-05-10 16:40:00,53.3,49.8,29.95,NNW,333,2.0,2.0,88,0.00,,,0.01,77,Wunderground v.1.15,2013-05-10 21:40:00,
2013-05-10 16:45:00,53.3,49.8,29.95,NNW,339,3.0,3.0,88,0.00,,,0.01,70,Wunderground v.1.15,2013-05-10 21:45:00,
2013-05-10 16:50:00,53.3,49.8,29.95,NNW,337,2.0,2.0,88,0.00,,,0.01,72,Wunderground v.1.15,2013-05-10 21:50:00,
2013-05-10 16:55:00,53.2,49.7,29.95,NNW,340,2.0,2.0,88,0.00,,,0.01,58,Wunderground v.1.15,2013-05-10 21:55:00,
2013-05-10 17:00:00,53.2,50.0,29.95,NNW,335,2.0,2.0,89,0.00,,,0.01,69,Wunderground v.1.15,2013-05-10 22:00:00,
2013-05-10 17:10:00,53.2,50.0,29.95,NNW,333,2.0,2.0,89,0.00,,,0.01,76,Wunderground v.1.15,2013-05-10 22:10:00,
2013-05-10 17:15:00,53.1,49.9,29.95,NNW,336,2.0,3.0,89,0.00,,,0.01,65,Wunderground v.1.15,2013-05-10 22:15:00,
2013-05-10 17:20:00,52.9,49.7,29.95,NNW,337,3.0,3.0,89,0.00,,,0.01,62,Wunderground v.1.15,2013-05-10 22:20:00,
2013-05-10 17:25:00,52.9,50.0,29.95,NNW,337,2.0,3.0,90,0.00,,,0.01,67,Wunderground v.1.15,2013-05-10 22:25:00,
2013-05-10 17:30:00,52.8,49.9,29.95,NNW,346,2.0,6.0,90,0.00,,,0.01,65,Wunderground v.1.15,2013-05-10 22:30:00,
2013-05-10 17:35:00,52.8,49.9,29.95,NNW,333,3.0,6.0,90,0.00,,,0.01,74,Wunderground v.1.15,2013-05-10 22:35:00,
2013-05-10 17:40:00,52.9,50.3,29.95,NNW,333,2.0,2.0,91,0.00,,,0.01,83,Wunderground v.1.15,2013-05-10 22:40:00,
2013-05-10 17:45:00,52.9,50.3,29.95,NNW,334,2.0,4.0,91,0.00,,,0.01,86,Wunderground v.1.15,2013-05-10 22:45:00,
2013-05-10 17:50:00,52.8,49.9,29.95,NNW,336,3.0,4.0,90,0.00,,,0.01,100,Wunderground v.1.15,2013-05-10 22:50:00,
2013-05-10 17:55:00,52.8,50.2,29.96,NNW,337,3.0,4.0,91,0.00,,,0.01,86,Wunderground v.1.15,2013-05-10 22:55:00,
2013-05-10 18:05:00,52.6,49.8,29.96,NNW,348,3.0,3.0,90,0.00,,,0.01,49,Wunderground v.1.15,2013-05-10 23:05:00,
2013-05-10 18:15:00,52.6,50.0,29.96,NNW,346,2.0,3.0,91,0.00,,,0.01,79,Wunderground v.1.15,2013-05-10 23:15:00,
2013-05-10 18:20:00,52.6,50.0,29.96,NNW,346,1.0,4.0,91,0.00,,,0.01,65,Wunderground v.1.15,2013-05-10 23:20:00,
2013-05-10 18:25:00,52.7,50.1,29.96,NNW,346,1.0,4.0,91,0.00,,,0.01,47,Wunderground v.1.15,2013-05-10 23:25:00,
2013-05-10 18:30:00,52.7,50.1,29.97,NNW,346,1.0,2.0,91,0.00,,,0.01,39,Wunderground v.1.15,2013-05-10 23:30:00,
2013-05-10 18:35:00,52.7,49.8,29.96,NNW,346,1.0,2.0,90,0.00,,,0.01,35,Wunderground v.1.15,2013-05-10 23:35:00,
2013-05-10 18:45:00,52.7,49.8,29.97,NNW,346,1.0,1.0,90,0.00,,,0.01,30,Wunderground v.1.15,2013-05-10 23:45:00,
2013-05-10 18:50:00,52.8,49.9,29.97,NNW,346,1.0,1.0,90,0.00,,,0.01,25,Wunderground v.1.15,2013-05-10 23:50:00,
2013-05-10 18:55:00,52.7,49.8,29.97,NNW,346,0.0,1.0,90,0.00,,,0.01,14,Wunderground v.1.15,2013-05-10 23:55:00,
2013-05-10 19:00:00,52.7,49.8,29.97,NNW,346,1.0,1.0,90,0.00,,,0.01,18,Wunderground v.1.15,2013-05-11 00:00:00,
2013-05-10 19:05:00,52.8,49.9,29.98,NNW,346,1.0,1.0,90,0.00,,,0.01,18,Wunderground v.1.15,2013-05-11 00:05:00,
2013-05-10 19:10:00,52.7,49.8,29.98,NNW,346,0.0,0.0,90,0.00,,,0.01,14,Wunderground v.1.15,2013-05-11 00:10:00,
2013-05-10 19:20:00,52.7,49.5,29.98,NNW,346,1.0,1.0,89,0.00,,,0.01,11,Wunderground v.1.15,2013-05-11 00:20:00,
2013-05-10 19:25:00,52.7,49.8,29.98,NNW,346,1.0,1.0,90,0.00,,,0.01,9,Wunderground v.1.15,2013-05-11 00:25:00,
2013-05-10 19:30:00,52.7,49.5,29.99,NNW,346,1.0,1.0,89,0.00,,,0.01,11,Wunderground v.1.15,2013-05-11 00:30:00,
2013-05-10 19:35:00,52.6,49.4,29.99,NNW,346,1.0,3.0,89,0.00,,,0.01,7,Wunderground v.1.15,2013-05-11 00:35:00,
2013-05-10 19:40:00,52.6,49.4,29.99,NNW,346,1.0,1.0,89,0.00,,,0.01,5,Wunderground v.1.15,2013-05-11 00:40:00,
2013-05-10 19:50:00,52.6,49.8,29.99,NNW,346,0.0,0.0,90,0.00,,,0.01,0,Wunderground v.1.15,2013-05-11 00:50:00,
2013-05-10 19:55:00,52.6,49.8,29.99,NNW,346,0.0,0.0,90,0.00,,,0.01,0,Wunderground v.1.15,2013-05-11 00:55:00,
2013-05-10 20:00:00,52.6,49.8,29.99,NNW,346,0.0,0.0,90,0.00,,,0.01,0,Wunderground v.1.15,2013-05-11 01:00:00,
2013-05-10 20:05:00,52.6,49.8,29.99,NNW,346,0.0,0.0,90,0.00,,,0.01,0,Wunderground v.1.15,2013-05-11 01:05:00,
2013-05-10 20:10:00,52.6,49.8,29.99,NNW,346,0.0,0.0,90,0.00,,,0.01,0,Wunderground v.1.15,2013-05-11 01:10:00,
2013-05-10 20:15:00,52.6,49.8,29.98,NNW,346,0.0,0.0,90,0.00,,,0.01,0,Wunderground v.1.15,2013-05-11 01:15:00,
2013-05-10 20:25:00,52.6,49.8,29.98,NNW,346,0.0,0.0,90,0.00,,,0.01,0,Wunderground v.1.15,2013-05-11 01:25:00,
2013-05-10 20:30:00,52.6,50.0,29.98,NNW,346,0.0,0.0,91,0.00,,,0.01,0,Wunderground v.1.15,2013-05-11 01:30:00,
2013-05-10 20:35:00,52.6,50.0,29.98,NNW,346,0.0,0.0,91,0.00,,,0.01,0,Wunderground v.1.15,2013-05-11 01:35:00,
2013-05-10 20:40:00,52.6,50.0,29.98,NNW,346,0.0,1.0,91,0.00,,,0.01,0,Wunderground v.1.15,2013-05-11 01:40:00,
2013-05-10 20:45:00,52.5,49.9,29.98,NNW,346,0.0,3.0,91,0.00,,,0.01,0,Wunderground v.1.15,2013-05-11 01:45:00,
2013-05-10 20:55:00,52.5,49.9,29.98,NNW,346,0.0,0.0,91,0.00,,,0.01,0,Wunderground v.1.15,2013-05-11 01:55:00,
2013-05-10 21:00:00,52.5,49.9,29.98,NNW,346,0.0,0.0,91,0.00,,,0.01,0,Wunderground v.1.15,2013-05-11 02:00:00,
2013-05-10 21:05:00,52.4,49.8,29.98,NNW,346,0.0,0.0,91,0.00,,,0.01,0,Wunderground v.1.15,2013-05-11 02:05:00,
2013-05-10 21:10:00,52.5,49.9,29.98,NNW,346,0.0,0.0,91,0.00,,,0.01,0,Wunderground v.1.15,2013-05-11 02:10:00,
2013-05-10 21:15:00,52.5,49.9,29.98,NNW,346,0.0,0.0,91,0.00,,,0.01,0,Wunderground v.1.15,2013-05-11 02:15:00,
2013-05-10 21:20:00,52.5,49.9,29.99,NNW,346,0.0,0.0,91,0.00,,,0.01,0,Wunderground v.1.15,2013-05-11 02:20:00,
2013-05-10 21:30:00,52.5,49.9,29.99,NNW,346,0.0,0.0,91,0.00,,,0.01,0,Wunderground v.1.15,2013-05-11 02:30:00,
2013-05-10 21:35:00,52.5,50.2,29.99,NNW,346,0.0,0.0,92,0.00,,,0.01,0,Wunderground v.1.15,2013-05-11 02:35:00,
2013-05-10 21:40:00,52.5,50.2,29.98,NNW,346,0.0,0.0,92,0.00,,,0.01,0,Wunderground v.1.15,2013-05-11 02:40:00,
2013-05-10 21:45:00,52.5,50.2,29.98,NNW,346,0.0,0.0,92,0.00,,,0.01,0,Wunderground v.1.15,2013-05-11 02:45:00,
2013-05-10 21:50:00,52.5,50.2,29.99,NNW,346,0.0,0.0,92,0.00,,,0.01,0,Wunderground v.1.15,2013-05-11 02:50:00,
2013-05-10 22:00:00,52.5,50.2,29.99,NNW,346,0.0,0.0,92,0.00,,,0.01,0,Wunderground v.1.15,2013-05-11 03:00:00,
2013-05-10 22:05:00,52.5,50.2,29.99,NNW,346,0.0,0.0,92,0.00,,,0.01,0,Wunderground v.1.15,2013-05-11 03:05:00,
2013-05-10 22:10:00,52.5,50.2,29.99,NNW,346,0.0,1.0,92,0.00,,,0.01,0,Wunderground v.1.15,2013-05-11 03:10:00,
2013-05-10 22:15:00,52.5,50.2,29.99,NNW,346,0.0,1.0,92,0.00,,,0.01,0,Wunderground v.1.15,2013-05-11 03:15:00,
2013-05-10 22:20:00,52.6,50.3,29.99,NNW,346,0.0,0.0,92,0.00,,,0.01,0,Wunderground v.1.15,2013-05-11 03:20:00,
2013-05-10 22:25:00,52.6,50.3,29.98,NNW,346,0.0,0.0,92,0.00,,,0.01,0,Wunderground v.1.15,2013-05-11 03:25:00,
2013-05-10 22:35:00,52.6,50.0,29.98,NNW,346,1.0,1.0,91,0.00,,,0.01,0,Wunderground v.1.15,2013-05-11 03:35:00,
2013-05-10 22:40:00,52.5,49.9,29.98,NNW,346,2.0,2.0,91,0.00,,,0.01,0,Wunderground v.1.15,2013-05-11 03:40:00,
2013-05-10 22:45:00,52.5,49.9,29.98,NNW,346,1.0,2.0,91,0.00,,,0.01,0,Wunderground v.1.15,2013-05-11 03:45:00,
2013-05-10 22:50:00,52.5,49.7,29.98,NNW,347,2.0,3.0,90,0.00,,,0.01,0,Wunderground v.1.15,2013-05-11 03:50:00,
2013-05-10 22:55:00,52.5,49.4,29.98,NNW,348,3.0,7.0,89,0.00,,,0.01,0,Wunderground v.1.15,2013-05-11 03:55:00,
2013-05-10 23:05:00,52.6,49.1,29.99,North,355,3.0,3.0,88,0.00,,,0.01,0,Wunderground v.1.15,2013-05-11 04:05:00,
2013-05-10 23:10:00,52.6,49.1,29.99,North,355,2.0,2.0,88,0.00,,,0.01,0,Wunderground v.1.15,2013-05-11 04:10:00,
2013-05-10 23:15:00,52.5,48.7,29.99,North,355,2.0,3.0,87,0.00,,,0.01,0,Wunderground v.1.15,2013-05-11 04:15:00,
2013-05-10 23:20:00,52.5,48.7,29.99,North,355,2.0,2.0,87,0.00,,,0.01,0,Wunderground v.1.15,2013-05-11 04:20:00,
2013-05-10 23:25:00,52.5,48.7,29.99,North,355,1.0,2.0,87,0.00,,,0.01,0,Wunderground v.1.15,2013-05-11 04:25:00,
2013-05-10 23:30:00,52.5,48.7,29.99,North,355,1.0,1.0,87,0.00,,,0.01,0,Wunderground v.1.15,2013-05-11 04:30:00,
2013-05-10 23:40:00,52.4,48.6,29.99,North,355,0.0,0.0,87,0.00,,,0.01,0,Wunderground v.1.15,2013-05-11 04:40:00,
2013-05-10 23:45:00,52.3,48.5,29.99,North,355,0.0,0.0,87,0.00,,,0.01,0,Wunderground v.1.15,2013-05-11 04:45:00,
2013-05-10 23:50:00,52.2,48.4,29.99,North,355,0.0,0.0,87,0.00,,,0.01,0,Wunderground v.1.15,2013-05-11 04:50:00,
2013-05-10 23:55:00,52.1,48.7,29.99,North,355,0.0,0.0,88,0.00,,,0.01,0,Wunderground v.1.15,2013-05-11 04:55:00,